| time (UTC) | temp C | wind direction | speed KPH | gust KPH | rain 1hr cm | rain 24hr cm | rain mn cm | humidity % | barometer mb |
| 20260903070008 | 13 | 124 | 3.2 | 9.7 | 0.00 | 1.37 | 0.00 | 92 | 1010.3 |
| 20260903064512 | 12 | 145 | 1.6 | 6.4 | 0.00 | 1.37 | 1.37 | 92 | 1010.3 |
| 20260903063020 | 13 | 140 | 1.6 | 6.4 | 0.00 | 1.37 | 1.37 | 92 | 1010.4 |
| 20260903061527 | 13 | 123 | 0.0 | 6.4 | 0.00 | 1.37 | 1.37 | 92 | 1010.5 |
| 20260903060005 | 13 | 99 | 0.0 | 6.4 | 0.00 | 1.37 | 1.37 | 92 | 1010.4 |
| 20260903054512 | 12 | 121 | 0.0 | 3.2 | 0.00 | 1.37 | 1.37 | 91 | 1010.6 |
| 20260903053018 | 12 | 126 | 0.0 | 3.2 | 0.00 | 1.37 | 1.37 | 91 | 1010.6 |
| 20260903051526 | 12 | 103 | 0.0 | 3.2 | 0.00 | 1.37 | 1.37 | 91 | 1010.5 |
| 20260903050035 | 12 | 108 | 0.0 | 0.0 | 0.00 | 1.37 | 1.37 | 92 | 1010.5 |
| 20260903044509 | 12 | 108 | 0.0 | 3.2 | 0.00 | 1.37 | 1.37 | 92 | 1010.5 |
| 20260903043015 | 12 | 123 | 0.0 | 0.0 | 0.00 | 1.37 | 1.37 | 91 | 1010.2 |
| 20260903041517 | 12 | 116 | 0.0 | 0.0 | 0.00 | 1.37 | 1.37 | 89 | 1010.2 |
| 20260903040030 | 12 | 119 | 0.0 | 1.6 | 0.00 | 1.37 | 1.37 | 88 | 1010.1 |
| 20260903034530 | 12 | 149 | 0.0 | 4.8 | 0.00 | 1.37 | 1.37 | 89 | 1009.9 |
| 20260903033013 | 12 | 203 | 3.2 | 4.8 | 0.00 | 1.37 | 1.37 | 89 | 1009.7 |
| 20260903031518 | 13 | 119 | 0.0 | 0.0 | 0.00 | 1.37 | 1.37 | 86 | 1009.3 |
| 20260903030029 | 13 | 177 | 0.0 | 3.2 | 0.00 | 1.37 | 1.37 | 84 | 1009.3 |
| 20260903024531 | 14 | 186 | 0.0 | 3.2 | 0.00 | 1.37 | 1.37 | 82 | 1009.1 |
| 20260903023036 | 15 | 186 | 0.0 | 12.9 | 0.00 | 1.37 | 1.37 | 80 | 1009.1 |
| 20260903021513 | 15 | 181 | 0.0 | 3.2 | 0.00 | 1.37 | 1.37 | 79 | 1008.9 |
| 20260903020034 | 15 | 157 | 1.6 | 9.7 | 0.00 | 1.37 | 1.37 | 78 | 1008.7 |
| 20260903014527 | 16 | 157 | 0.0 | 12.9 | 0.00 | 1.37 | 1.37 | 80 | 1008.8 |
| 20260903013029 | 15 | 205 | 3.2 | 9.7 | 0.00 | 1.37 | 1.37 | 80 | 1008.6 |
| 20260903011514 | 16 | 135 | 4.8 | 12.9 | 0.00 | 1.37 | 1.37 | 79 | 1008.5 |
| 20260903010018 | 16 | 161 | 0.0 | 11.3 | 0.00 | 1.37 | 1.37 | 80 | 1008.5 |
| 20260903004525 | 16 | 138 | 0.0 | 11.3 | 0.00 | 1.37 | 1.37 | 81 | 1008.2 |
| 20260903003027 | 16 | 128 | 3.2 | 9.7 | 0.00 | 1.37 | 1.37 | 82 | 1008.2 |
| 20260903001534 | 16 | 136 | 1.6 | 6.4 | 0.00 | 1.37 | 1.37 | 83 | 1008.1 |
| 20260903000016 | 16 | 115 | 3.2 | 11.3 | 0.03 | 1.37 | 1.37 | 87 | 1008.0 |
| 20260902234523 | 16 | 97 | 1.6 | 8.0 | 0.03 | 1.37 | 1.37 | 88 | 1007.9 |
| 20260902233027 | 15 | 157 | 0.0 | 1.6 | 0.03 | 1.37 | 1.37 | 89 | 1007.9 |
| 20260902231532 | 15 | 141 | 0.0 | 9.7 | 0.03 | 1.37 | 1.37 | 88 | 1007.9 |
| 20260902230037 | 15 | 111 | 1.6 | 6.4 | 0.03 | 1.32 | 1.32 | 88 | 1007.9 |
| 20260902224519 | 15 | 96 | 1.6 | 8.0 | 0.03 | 1.32 | 1.32 | 90 | 1007.5 |
| 20260902223048 | 15 | 151 | 0.0 | 12.9 | 0.25 | 1.32 | 1.32 | 89 | 1007.3 |
| 20260902221531 | 15 | 134 | 3.2 | 14.5 | 0.33 | 1.32 | 1.32 | 91 | 1007.2 |
| 20260902220032 | 15 | 139 | 3.2 | 11.3 | 0.30 | 1.32 | 1.32 | 1007.1 | |
| 20260902214516 | 14 | 180 | 3.2 | 14.5 | 0.30 | 1.32 | 1.32 | 1007.1 | |
| 20260902213025 | 15 | 132 | 4.8 | 14.5 | 0.08 | 1.09 | 1.09 | 91 | 1006.8 |
| 20260902211526 | 15 | 189 | 3.2 | 17.7 | 0.00 | 1.02 | 1.02 | 91 | 1006.7 |
| 20260902210031 | 15 | 215 | 9.7 | 20.9 | 0.00 | 1.02 | 1.02 | 91 | 1006.7 |
| 20260902204544 | 14 | 202 | 3.2 | 20.9 | 0.00 | 1.02 | 1.02 | 92 | 1006.6 |
| 20260902203021 | 14 | 135 | 6.4 | 20.9 | 0.00 | 1.02 | 1.02 | 92 | 1006.5 |
| 20260902201528 | 14 | 321 | 1.6 | 14.5 | 0.03 | 1.02 | 1.02 | 92 | 1006.4 |
| 20260902200037 | 14 | 153 | 3.2 | 14.5 | 0.05 | 1.02 | 1.02 | 1006.4 | |
| 20260902194531 | 13 | 138 | 0.0 | 9.7 | 0.05 | 1.02 | 1.02 | 92 | 1006.6 |
| 20260902193034 | 13 | 108 | 0.0 | 9.7 | 0.10 | 1.02 | 1.02 | 91 | 1006.5 |
| 20260902191527 | 13 | 148 | 1.6 | 9.7 | 0.28 | 0.99 | 0.99 | 90 | 1006.5 |
| 20260902190007 | 13 | 148 | 1.6 | 9.7 | 0.33 | 0.97 | 0.97 | 90 | 1006.5 |
| 20260902184510 | 13 | 29 | 3.2 | 12.9 | 0.33 | 0.97 | 0.97 | 91 | 1006.8 |
| 20260902183035 | 13 | 159 | 0.0 | 6.4 | 0.30 | 0.91 | 0.91 | 90 | 1007.1 |
| 20260902181523 | 14 | 266 | 1.6 | 12.9 | 0.20 | 0.71 | 0.71 | 90 | 1007.0 |
| 20260902180028 | 14 | 70 | 0.0 | 4.8 | 0.20 | 0.64 | 0.64 | 90 | 1006.9 |
| 20260902174513 | 14 | 90 | 0.0 | 6.4 | 0.25 | 0.64 | 0.64 | 91 | 1007.2 |
| 20260902173024 | 14 | 17 | 0.0 | 6.4 | 0.33 | 0.61 | 0.61 | 91 | 1007.4 |
| 20260902171519 | 14 | 170 | 0.0 | 4.8 | 0.33 | 0.51 | 0.51 | 91 | 1007.5 |
| 20260902170032 | 14 | 141 | 0.0 | 6.4 | 0.36 | 0.43 | 0.43 | 91 | 1007.5 |
| 20260902164503 | 14 | 105 | 0.0 | 0.0 | 0.36 | 0.38 | 0.38 | 90 | 1007.4 |
| 20260902163009 | 14 | 175 | 0.0 | 0.0 | 0.28 | 0.28 | 0.28 | 89 | 1007.4 |
| 20260902161516 | 14 | 160 | 0.0 | 0.0 | 0.18 | 0.18 | 0.18 | 89 | 1007.4 |
| 20260902160023 | 15 | 160 | 0.0 | 0.0 | 0.08 | 0.08 | 0.08 | 88 | 1007.4 |
| 20260902154527 | 15 | 209 | 0.0 | 3.2 | 0.03 | 0.03 | 0.03 | 87 | 1007.6 |
| 20260902153013 | 14 | 240 | 0.0 | 0.0 | 0.00 | 0.00 | 0.00 | 86 | 1007.6 |
| 20260902151518 | 15 | 211 | 0.0 | 0.0 | 0.00 | 0.00 | 0.00 | 85 | 1007.7 |
| 20260902150025 | 14 | 86 | 0.0 | 0.0 | 0.00 | 0.00 | 0.00 | 84 | 1007.8 |
| 20260902144527 | 14 | 86 | 0.0 | 0.0 | 0.00 | 0.00 | 0.00 | 85 | 1008.1 |
| 20260902143032 | 14 | 86 | 0.0 | 0.0 | 0.00 | 0.00 | 0.00 | 85 | 1008.2 |
| 20260902141513 | 13 | 86 | 0.0 | 0.0 | 0.00 | 0.00 | 0.00 | 84 | 1008.2 |
| 20260902140025 | 14 | 86 | 0.0 | 0.0 | 0.00 | 0.00 | 0.00 | 84 | 1008.3 |
| 20260902134526 | 14 | 86 | 0.0 | 0.0 | 0.00 | 0.00 | 0.00 | 83 | 1008.4 |
| 20260902133029 | 14 | 86 | 0.0 | 0.0 | 0.00 | 0.00 | 0.00 | 83 | 1008.5 |
| 20260902131528 | 14 | 86 | 0.0 | 0.0 | 0.00 | 0.00 | 0.00 | 83 | 1008.8 |
| 20260902130013 | 14 | 86 | 0.0 | 0.0 | 0.00 | 0.00 | 0.00 | 82 | 1008.9 |
| 20260902124513 | 14 | 93 | 0.0 | 0.0 | 0.00 | 0.00 | 0.00 | 82 | 1009.3 |
| 20260902123012 | 14 | 115 | 0.0 | 0.0 | 0.00 | 0.00 | 0.00 | 82 | 1009.6 |
| 20260902121507 | 14 | 146 | 0.0 | 0.0 | 0.00 | 0.00 | 0.00 | 82 | 1009.8 |
| 20260902120015 | 14 | 104 | 0.0 | 0.0 | 0.00 | 0.00 | 0.00 | 83 | 1009.9 |
| 20260902114516 | 15 | 49 | 0.0 | 3.2 | 0.00 | 0.00 | 0.00 | 82 | 1010.1 |
| 20260902113016 | 14 | 129 | 0.0 | 6.4 | 0.00 | 0.00 | 0.00 | 82 | 1010.4 |
| 20260902111507 | 14 | 33 | 0.0 | 3.2 | 0.00 | 0.00 | 0.00 | 83 | 1010.6 |
| 20260902110032 | 14 | 138 | 0.0 | 0.0 | 0.00 | 0.00 | 0.00 | 83 | 1010.7 |
| 20260902104532 | 14 | 173 | 0.0 | 0.0 | 0.00 | 0.00 | 0.00 | 84 | 1010.8 |
| 20260902103035 | 13 | 111 | 0.0 | 3.2 | 0.00 | 0.00 | 0.00 | 85 | 1010.9 |
| 20260902101519 | 13 | 229 | 0.0 | 0.0 | 0.00 | 0.00 | 0.00 | 86 | 1011.0 |
| 20260902100013 | 13 | 229 | 0.0 | 0.0 | 0.00 | 0.00 | 0.00 | 85 | 1011.0 |
| 20260902094519 | 14 | 200 | 0.0 | 0.0 | 0.00 | 0.00 | 0.00 | 84 | 1011.0 |
| 20260902093020 | 14 | 145 | 0.0 | 0.0 | 0.00 | 0.00 | 0.00 | 83 | 1011.2 |
| 20260902091518 | 14 | 119 | 0.0 | 3.2 | 0.00 | 0.00 | 0.00 | 83 | 1011.3 |
| 20260902090026 | 15 | 123 | 0.0 | 3.2 | 0.00 | 0.00 | 0.00 | 83 | 1011.4 |
| 20260902084515 | 14 | 119 | 0.0 | 3.2 | 0.00 | 0.00 | 0.00 | 84 | 1011.6 |
| 20260902083020 | 14 | 117 | 0.0 | 6.4 | 0.00 | 0.00 | 0.00 | 84 | 1011.7 |
| 20260902081525 | 14 | 127 | 1.6 | 3.2 | 0.00 | 0.00 | 0.00 | 84 | 1011.8 |
| 20260902080023 | 14 | 127 | 0.0 | 6.4 | 0.00 | 0.00 | 0.00 | 83 | 1011.9 |
| 20260902074524 | 15 | 138 | 0.0 | 0.0 | 0.00 | 0.00 | 0.00 | 82 | 1012.0 |
| 20260902073017 | 15 | 143 | 0.0 | 1.6 | 0.00 | 0.00 | 0.00 | 81 | 1012.1 |
| 20260902071524 | 15 | 154 | 0.0 | 6.4 | 0.00 | 0.00 | 0.00 | 80 | 1012.1 |